Year,Month,Day,Hour,Minute,Value (Times are PST for insolation in W/m^2)
2012,07,02,00,00,0.00
2012,07,02,00,01,0.00
2012,07,02,00,02,0.00
2012,07,02,00,03,0.00
2012,07,02,00,04,0.00
2012,07,02,00,05,0.00
2012,07,02,00,06,0.00
2012,07,02,00,07,0.00
2012,07,02,00,08,0.00
2012,07,02,00,09,0.00
2012,07,02,00,10,0.00
2012,07,02,00,11,0.00
2012,07,02,00,12,0.00
2012,07,02,00,13,0.00
2012,07,02,00,14,0.00
2012,07,02,00,15,0.00
2012,07,02,00,16,0.00
2012,07,02,00,17,0.00
2012,07,02,00,18,0.00
2012,07,02,00,19,0.00
2012,07,02,00,20,0.00
2012,07,02,00,21,0.00
2012,07,02,00,22,0.00
2012,07,02,00,23,0.00
2012,07,02,00,24,0.00
2012,07,02,00,25,0.00
2012,07,02,00,26,0.00
2012,07,02,00,27,0.00
2012,07,02,00,28,0.00
2012,07,02,00,29,0.00
2012,07,02,00,30,0.00
2012,07,02,00,31,0.00
2012,07,02,00,32,0.00
2012,07,02,00,33,0.00
2012,07,02,00,34,0.00
2012,07,02,00,35,0.00
2012,07,02,00,36,0.00
2012,07,02,00,37,0.00
2012,07,02,00,38,0.00
2012,07,02,00,39,0.00
2012,07,02,00,40,0.00
2012,07,02,00,41,0.00
2012,07,02,00,42,0.00
2012,07,02,00,43,0.00
2012,07,02,00,44,0.00
2012,07,02,00,45,0.00
2012,07,02,00,46,0.00
2012,07,02,00,47,0.00
2012,07,02,00,48,0.00
2012,07,02,00,49,0.00
2012,07,02,00,50,0.00
2012,07,02,00,51,0.00
2012,07,02,00,52,0.00
2012,07,02,00,53,0.00
2012,07,02,00,54,0.00
2012,07,02,00,55,0.00
2012,07,02,00,56,0.00
2012,07,02,00,57,0.00
2012,07,02,00,58,0.00
2012,07,02,00,59,0.00
2012,07,02,01,00,0.00
2012,07,02,01,01,0.00
2012,07,02,01,02,0.00
2012,07,02,01,03,0.00
2012,07,02,01,04,0.00
2012,07,02,01,05,0.00
2012,07,02,01,06,0.00
2012,07,02,01,07,0.00
2012,07,02,01,08,0.00
2012,07,02,01,09,0.00
2012,07,02,01,10,0.00
2012,07,02,01,11,0.00
2012,07,02,01,12,0.00
2012,07,02,01,13,0.00
2012,07,02,01,14,0.00
2012,07,02,01,15,0.00
2012,07,02,01,16,0.00
2012,07,02,01,17,0.00
2012,07,02,01,18,0.00
2012,07,02,01,19,0.00
2012,07,02,01,20,0.00
2012,07,02,01,21,0.00
2012,07,02,01,22,0.00
2012,07,02,01,23,0.00
2012,07,02,01,24,0.00
2012,07,02,01,25,0.00
2012,07,02,01,26,0.00
2012,07,02,01,27,0.00
2012,07,02,01,28,0.00
2012,07,02,01,29,0.00
2012,07,02,01,30,0.00
2012,07,02,01,31,0.00
2012,07,02,01,32,0.00
2012,07,02,01,33,0.00
2012,07,02,01,34,0.00
2012,07,02,01,35,0.00
2012,07,02,01,36,0.00
2012,07,02,01,37,0.00
2012,07,02,01,38,0.00
2012,07,02,01,39,0.00
2012,07,02,01,40,0.00
2012,07,02,01,41,0.00
2012,07,02,01,42,0.00
2012,07,02,01,43,0.00
2012,07,02,01,44,0.00
2012,07,02,01,45,0.00
2012,07,02,01,46,0.00
2012,07,02,01,47,0.00
2012,07,02,01,48,0.00
2012,07,02,01,49,0.00
2012,07,02,01,50,0.00
2012,07,02,01,51,0.00
2012,07,02,01,52,0.00
2012,07,02,01,53,0.00
2012,07,02,01,54,0.00
2012,07,02,01,55,0.00
2012,07,02,01,56,0.00
2012,07,02,01,57,0.00
2012,07,02,01,58,0.00
2012,07,02,01,59,0.00
2012,07,02,02,00,0.00
2012,07,02,02,01,0.00
2012,07,02,02,02,0.00
2012,07,02,02,03,0.00
2012,07,02,02,04,0.00
2012,07,02,02,05,0.00
2012,07,02,02,06,0.00
2012,07,02,02,07,0.00
2012,07,02,02,08,0.00
2012,07,02,02,09,0.00
2012,07,02,02,10,0.00
2012,07,02,02,11,0.00
2012,07,02,02,12,0.00
2012,07,02,02,13,0.00
2012,07,02,02,14,0.00
2012,07,02,02,15,0.00
2012,07,02,02,16,0.00
2012,07,02,02,17,0.00
2012,07,02,02,18,0.00
2012,07,02,02,19,0.00
2012,07,02,02,20,0.00
2012,07,02,02,21,0.00
2012,07,02,02,22,0.00
2012,07,02,02,23,0.00
2012,07,02,02,24,0.00
2012,07,02,02,25,0.00
2012,07,02,02,26,0.00
2012,07,02,02,27,0.00
2012,07,02,02,28,0.00
2012,07,02,02,29,0.00
2012,07,02,02,30,0.00
2012,07,02,02,31,0.00
2012,07,02,02,32,0.00
2012,07,02,02,33,0.00
2012,07,02,02,34,0.00
2012,07,02,02,35,0.00
2012,07,02,02,36,0.00
2012,07,02,02,37,0.00
2012,07,02,02,38,0.00
2012,07,02,02,39,0.00
2012,07,02,02,40,0.00
2012,07,02,02,41,0.00
2012,07,02,02,42,0.00
2012,07,02,02,43,0.00
2012,07,02,02,44,0.00
2012,07,02,02,45,0.00
2012,07,02,02,46,0.00
2012,07,02,02,47,0.00
2012,07,02,02,48,0.00
2012,07,02,02,49,0.00
2012,07,02,02,50,0.00
2012,07,02,02,51,0.00
2012,07,02,02,52,0.00
2012,07,02,02,53,0.00
2012,07,02,02,54,0.00
2012,07,02,02,55,0.00
2012,07,02,02,56,0.00
2012,07,02,02,57,0.00
2012,07,02,02,58,0.00
2012,07,02,02,59,0.00
2012,07,02,03,00,0.00
2012,07,02,03,01,0.00
2012,07,02,03,02,0.00
2012,07,02,03,03,0.00
2012,07,02,03,04,0.00
2012,07,02,03,05,0.00
2012,07,02,03,06,0.00
2012,07,02,03,07,0.00
2012,07,02,03,08,0.00
2012,07,02,03,09,0.00
2012,07,02,03,10,0.00
2012,07,02,03,11,0.00
2012,07,02,03,12,0.00
2012,07,02,03,13,0.00
2012,07,02,03,14,0.00
2012,07,02,03,15,0.00
2012,07,02,03,16,0.00
2012,07,02,03,17,0.00
2012,07,02,03,18,0.00
2012,07,02,03,19,0.00
2012,07,02,03,20,0.00
2012,07,02,03,21,0.00
2012,07,02,03,22,0.00
2012,07,02,03,23,0.00
2012,07,02,03,24,0.00
2012,07,02,03,25,0.00
2012,07,02,03,26,0.00
2012,07,02,03,27,0.00
2012,07,02,03,28,0.00
2012,07,02,03,29,0.00
2012,07,02,03,30,0.00
2012,07,02,03,31,0.00
2012,07,02,03,32,0.00
2012,07,02,03,33,0.00
2012,07,02,03,34,0.00
2012,07,02,03,35,0.00
2012,07,02,03,36,0.00
2012,07,02,03,37,0.00
2012,07,02,03,38,0.00
2012,07,02,03,39,0.00
2012,07,02,03,40,0.00
2012,07,02,03,41,0.00
2012,07,02,03,42,0.00
2012,07,02,03,43,0.00
2012,07,02,03,44,0.00
2012,07,02,03,45,0.00
2012,07,02,03,46,0.00
2012,07,02,03,47,0.00
2012,07,02,03,48,0.00
2012,07,02,03,49,0.00
2012,07,02,03,50,0.00
2012,07,02,03,51,0.00
2012,07,02,03,52,0.00
2012,07,02,03,53,0.00
2012,07,02,03,54,0.00
2012,07,02,03,55,0.00
2012,07,02,03,56,0.00
2012,07,02,03,57,0.00
2012,07,02,03,58,0.00
2012,07,02,03,59,0.00
2012,07,02,04,00,0.00
2012,07,02,04,01,0.00
2012,07,02,04,02,0.00
2012,07,02,04,03,0.00
2012,07,02,04,04,0.00
2012,07,02,04,05,0.00
2012,07,02,04,06,0.00
2012,07,02,04,07,0.00
2012,07,02,04,08,0.00
2012,07,02,04,09,0.00
2012,07,02,04,10,0.00
2012,07,02,04,11,0.00
2012,07,02,04,12,0.00
2012,07,02,04,13,0.00
2012,07,02,04,14,0.00
2012,07,02,04,15,0.00
2012,07,02,04,16,0.00
2012,07,02,04,17,0.00
2012,07,02,04,18,0.00
2012,07,02,04,19,0.00
2012,07,02,04,20,0.00
2012,07,02,04,21,0.00
2012,07,02,04,22,0.00
2012,07,02,04,23,0.00
2012,07,02,04,24,0.00
2012,07,02,04,25,0.00
2012,07,02,04,26,0.00
2012,07,02,04,27,0.00
2012,07,02,04,28,0.00
2012,07,02,04,29,0.00
2012,07,02,04,30,0.00
2012,07,02,04,31,0.00
2012,07,02,04,32,0.00
2012,07,02,04,33,0.00
2012,07,02,04,34,0.00
2012,07,02,04,35,0.00
2012,07,02,04,36,0.00
2012,07,02,04,37,0.00
2012,07,02,04,38,0.00
2012,07,02,04,39,0.00
2012,07,02,04,40,0.00
2012,07,02,04,41,0.00
2012,07,02,04,42,0.00
2012,07,02,04,43,0.00
2012,07,02,04,44,0.00
2012,07,02,04,45,0.00
2012,07,02,04,46,0.00
2012,07,02,04,47,0.00
2012,07,02,04,48,0.00
2012,07,02,04,49,0.00
2012,07,02,04,50,0.00
2012,07,02,04,51,0.00
2012,07,02,04,52,0.00
2012,07,02,04,53,0.00
2012,07,02,04,54,0.00
2012,07,02,04,55,0.00
2012,07,02,04,56,0.00
2012,07,02,04,57,0.00
2012,07,02,04,58,0.00
2012,07,02,04,59,0.00
2012,07,02,05,00,0.00
2012,07,02,05,01,0.00
2012,07,02,05,02,0.00
2012,07,02,05,03,0.00
2012,07,02,05,04,0.00
2012,07,02,05,05,0.00
2012,07,02,05,06,0.00
2012,07,02,05,07,0.00
2012,07,02,05,08,0.00
2012,07,02,05,09,0.00
2012,07,02,05,10,0.00
2012,07,02,05,11,0.00
2012,07,02,05,12,0.00
2012,07,02,05,13,0.00
2012,07,02,05,14,0.00
2012,07,02,05,15,0.00
2012,07,02,05,16,0.00
2012,07,02,05,17,0.00
2012,07,02,05,18,0.00
2012,07,02,05,19,0.00
2012,07,02,05,20,0.00
2012,07,02,05,21,0.00
2012,07,02,05,22,0.00
2012,07,02,05,23,0.00
2012,07,02,05,24,0.00
2012,07,02,05,25,0.00
2012,07,02,05,26,0.00
2012,07,02,05,27,0.00
2012,07,02,05,28,0.00
2012,07,02,05,29,0.00
2012,07,02,05,30,0.00
2012,07,02,05,31,0.00
2012,07,02,05,32,0.00
2012,07,02,05,33,0.00
2012,07,02,05,34,0.00
2012,07,02,05,35,0.00
2012,07,02,05,36,0.00
2012,07,02,05,37,0.00
2012,07,02,05,38,0.00
2012,07,02,05,39,0.00
2012,07,02,05,40,0.00
2012,07,02,05,41,0.00
2012,07,02,05,42,0.00
2012,07,02,05,43,0.00
2012,07,02,05,44,0.00
2012,07,02,05,45,0.00
2012,07,02,05,46,0.00
2012,07,02,05,47,0.00
2012,07,02,05,48,0.00
2012,07,02,05,49,0.00
2012,07,02,05,50,0.00
2012,07,02,05,51,0.00
2012,07,02,05,52,1.10
2012,07,02,05,53,5.00
2012,07,02,05,54,5.00
2012,07,02,05,55,5.00
2012,07,02,05,56,5.00
2012,07,02,05,57,5.00
2012,07,02,05,58,5.00
2012,07,02,05,59,5.00
2012,07,02,06,00,5.00
2012,07,02,06,01,5.00
2012,07,02,06,02,5.00
2012,07,02,06,03,5.00
2012,07,02,06,04,5.00
2012,07,02,06,05,5.00
2012,07,02,06,06,5.00
2012,07,02,06,07,5.50
2012,07,02,06,08,7.00
2012,07,02,06,09,7.00
2012,07,02,06,10,7.00
2012,07,02,06,11,7.00
2012,07,02,06,12,7.00
2012,07,02,06,13,8.20
2012,07,02,06,14,9.00
2012,07,02,06,15,9.00
2012,07,02,06,16,9.00
2012,07,02,06,17,9.00
2012,07,02,06,18,9.00
2012,07,02,06,19,11.00
2012,07,02,06,20,11.10
2012,07,02,06,21,12.00
2012,07,02,06,22,12.00
2012,07,02,06,23,12.00
2012,07,02,06,24,12.00
2012,07,02,06,25,12.90
2012,07,02,06,26,14.00
2012,07,02,06,27,15.10
2012,07,02,06,28,16.00
2012,07,02,06,29,17.30
2012,07,02,06,30,18.70
2012,07,02,06,31,19.00
2012,07,02,06,32,20.70
2012,07,02,06,33,21.00
2012,07,02,06,34,21.10
2012,07,02,06,35,23.00
2012,07,02,06,36,23.00
2012,07,02,06,37,23.00
2012,07,02,06,38,23.00
2012,07,02,06,39,23.00
2012,07,02,06,40,23.00
2012,07,02,06,41,22.00
2012,07,02,06,42,21.00
2012,07,02,06,43,21.00
2012,07,02,06,44,21.00
2012,07,02,06,45,19.60
2012,07,02,06,46,19.00
2012,07,02,06,47,20.70
2012,07,02,06,48,21.00
2012,07,02,06,49,23.10
2012,07,02,06,50,25.00
2012,07,02,06,51,25.10
2012,07,02,06,52,26.50
2012,07,02,06,53,28.60
2012,07,02,06,54,31.10
2012,07,02,06,55,33.90
2012,07,02,06,56,36.00
2012,07,02,06,57,38.10
2012,07,02,06,58,39.60
2012,07,02,06,59,40.00
2012,07,02,07,00,40.00
2012,07,02,07,01,40.00
2012,07,02,07,02,40.00
2012,07,02,07,03,40.00
2012,07,02,07,04,40.00
2012,07,02,07,05,40.00
2012,07,02,07,06,40.00
2012,07,02,07,07,40.00
2012,07,02,07,08,40.00
2012,07,02,07,09,40.00
2012,07,02,07,10,40.00
2012,07,02,07,11,40.00
2012,07,02,07,12,40.00
2012,07,02,07,13,40.00
2012,07,02,07,14,40.00
2012,07,02,07,15,41.40
2012,07,02,07,16,42.00
2012,07,02,07,17,43.70
2012,07,02,07,18,44.00
2012,07,02,07,19,46.00
2012,07,02,07,20,47.00
2012,07,02,07,21,47.00
2012,07,02,07,22,46.80
2012,07,02,07,23,46.30
2012,07,02,07,24,47.70
2012,07,02,07,25,50.70
2012,07,02,07,26,54.40
2012,07,02,07,27,57.10
2012,07,02,07,28,60.50
2012,07,02,07,29,64.00
2012,07,02,07,30,66.50
2012,07,02,07,31,68.60
2012,07,02,07,32,69.90
2012,07,02,07,33,71.80
2012,07,02,07,34,74.10
2012,07,02,07,35,76.10
2012,07,02,07,36,77.40
2012,07,02,07,37,80.00
2012,07,02,07,38,83.90
2012,07,02,07,39,87.80
2012,07,02,07,40,93.60
2012,07,02,07,41,98.40
2012,07,02,07,42,102.70
2012,07,02,07,43,108.70
2012,07,02,07,44,113.00
2012,07,02,07,45,114.00
2012,07,02,07,46,114.00
2012,07,02,07,47,111.40
2012,07,02,07,48,109.20
2012,07,02,07,49,109.10
2012,07,02,07,50,111.30
2012,07,02,07,51,114.70
2012,07,02,07,52,118.70
2012,07,02,07,53,122.30
2012,07,02,07,54,125.00
2012,07,02,07,55,124.10
2012,07,02,07,56,121.60
2012,07,02,07,57,116.70
2012,07,02,07,58,112.10
2012,07,02,07,59,111.00
2012,07,02,08,00,112.50
2012,07,02,08,01,115.40
2012,07,02,08,02,114.30
2012,07,02,08,03,111.10
2012,07,02,08,04,104.90
2012,07,02,08,05,101.80
2012,07,02,08,06,99.60
2012,07,02,08,07,97.80
2012,07,02,08,08,95.90
2012,07,02,08,09,91.90
2012,07,02,08,10,88.30
2012,07,02,08,11,84.50
2012,07,02,08,12,81.90
2012,07,02,08,13,81.00
2012,07,02,08,14,81.00
2012,07,02,08,15,79.50
2012,07,02,08,16,79.00
2012,07,02,08,17,79.00
2012,07,02,08,18,77.20
2012,07,02,08,19,79.00
2012,07,02,08,20,79.00
2012,07,02,08,21,78.60
2012,07,02,08,22,76.30
2012,07,02,08,23,72.90
2012,07,02,08,24,68.90
2012,07,02,08,25,65.30
2012,07,02,08,26,62.50
2012,07,02,08,27,60.90
2012,07,02,08,28,58.80
2012,07,02,08,29,56.70
2012,07,02,08,30,56.00
2012,07,02,08,31,57.60
2012,07,02,08,32,61.40
2012,07,02,08,33,62.90
2012,07,02,08,34,63.00
2012,07,02,08,35,62.90
2012,07,02,08,36,62.00
2012,07,02,08,37,62.00
2012,07,02,08,38,62.30
2012,07,02,08,39,63.00
2012,07,02,08,40,63.00
2012,07,02,08,41,64.00
2012,07,02,08,42,66.10
2012,07,02,08,43,68.90
2012,07,02,08,44,74.00
2012,07,02,08,45,78.20
2012,07,02,08,46,83.00
2012,07,02,08,47,87.40
2012,07,02,08,48,94.40
2012,07,02,08,49,100.20
2012,07,02,08,50,105.20
2012,07,02,08,51,107.40
2012,07,02,08,52,108.00
2012,07,02,08,53,103.00
2012,07,02,08,54,95.10
2012,07,02,08,55,89.10
2012,07,02,08,56,89.50
2012,07,02,08,57,93.30
2012,07,02,08,58,95.00
2012,07,02,08,59,98.40
2012,07,02,09,00,103.00
2012,07,02,09,01,104.00
2012,07,02,09,02,108.30
2012,07,02,09,03,113.80
2012,07,02,09,04,114.00
2012,07,02,09,05,112.60
2012,07,02,09,06,107.70
2012,07,02,09,07,100.30
2012,07,02,09,08,94.40
2012,07,02,09,09,94.50
2012,07,02,09,10,99.10
2012,07,02,09,11,103.00
2012,07,02,09,12,101.80
2012,07,02,09,13,95.70
2012,07,02,09,14,84.80
2012,07,02,09,15,71.90
2012,07,02,09,16,63.30
2012,07,02,09,17,62.00
2012,07,02,09,18,66.50
2012,07,02,09,19,77.60
2012,07,02,09,20,91.40
2012,07,02,09,21,105.70
2012,07,02,09,22,109.00
2012,07,02,09,23,107.60
2012,07,02,09,24,101.80
2012,07,02,09,25,94.80
2012,07,02,09,26,87.50
2012,07,02,09,27,82.30
2012,07,02,09,28,81.00
2012,07,02,09,29,85.80
2012,07,02,09,30,94.90
2012,07,02,09,31,103.50
2012,07,02,09,32,114.50
2012,07,02,09,33,126.50
2012,07,02,09,34,125.10
2012,07,02,09,35,127.00
2012,07,02,09,36,125.30
2012,07,02,09,37,113.00
2012,07,02,09,38,91.30
2012,07,02,09,39,72.60
2012,07,02,09,40,65.90
2012,07,02,09,41,68.50
2012,07,02,09,42,79.10
2012,07,02,09,43,97.10
2012,07,02,09,44,110.80
2012,07,02,09,45,117.00
2012,07,02,09,46,116.40
2012,07,02,09,47,114.30
2012,07,02,09,48,113.10
2012,07,02,09,49,118.20
2012,07,02,09,50,123.50
2012,07,02,09,51,127.60
2012,07,02,09,52,130.50
2012,07,02,09,53,132.60
2012,07,02,09,54,133.20
2012,07,02,09,55,131.10
2012,07,02,09,56,126.70
2012,07,02,09,57,117.50
2012,07,02,09,58,106.20
2012,07,02,09,59,97.20
2012,07,02,10,00,93.50
2012,07,02,10,01,93.00
2012,07,02,10,02,94.70
2012,07,02,10,03,90.20
2012,07,02,10,04,78.70
2012,07,02,10,05,72.00
2012,07,02,10,06,72.70
2012,07,02,10,07,76.20
2012,07,02,10,08,76.70
2012,07,02,10,09,76.40
2012,07,02,10,10,78.70
2012,07,02,10,11,83.50
2012,07,02,10,12,95.10
2012,07,02,10,13,118.10
2012,07,02,10,14,151.20
2012,07,02,10,15,168.90
2012,07,02,10,16,179.10
2012,07,02,10,17,185.30
2012,07,02,10,18,179.60
2012,07,02,10,19,170.70
2012,07,02,10,20,164.00
2012,07,02,10,21,155.70
2012,07,02,10,22,142.70
2012,07,02,10,23,126.90
2012,07,02,10,24,111.40
2012,07,02,10,25,101.00
2012,07,02,10,26,97.50
2012,07,02,10,27,106.60
2012,07,02,10,28,122.30
2012,07,02,10,29,136.90
2012,07,02,10,30,147.10
2012,07,02,10,31,153.90
2012,07,02,10,32,155.90
2012,07,02,10,33,156.00
2012,07,02,10,34,136.80
2012,07,02,10,35,130.10
2012,07,02,10,36,117.00
2012,07,02,10,37,115.40
2012,07,02,10,38,125.20
2012,07,02,10,39,130.00
2012,07,02,10,40,125.70
2012,07,02,10,41,112.90
2012,07,02,10,42,109.90
2012,07,02,10,43,118.30
2012,07,02,10,44,136.70
2012,07,02,10,45,154.70
2012,07,02,10,46,169.30
2012,07,02,10,47,202.00
2012,07,02,10,48,236.10
2012,07,02,10,49,218.00
2012,07,02,10,50,220.60
2012,07,02,10,51,237.40
2012,07,02,10,52,241.10
2012,07,02,10,53,254.90
2012,07,02,10,54,277.80
2012,07,02,10,55,283.70
2012,07,02,10,56,263.00
2012,07,02,10,57,232.00
2012,07,02,10,58,207.60
2012,07,02,10,59,198.00
2012,07,02,11,00,183.30
2012,07,02,11,01,166.00
2012,07,02,11,02,156.10
2012,07,02,11,03,164.50
2012,07,02,11,04,186.60
2012,07,02,11,05,197.20
2012,07,02,11,06,183.70
2012,07,02,11,07,172.80
2012,07,02,11,08,168.40
2012,07,02,11,09,168.80
2012,07,02,11,10,169.90
2012,07,02,11,11,159.00
2012,07,02,11,12,159.00
2012,07,02,11,13,170.60
2012,07,02,11,14,169.20
2012,07,02,11,15,167.00
2012,07,02,11,16,168.60
2012,07,02,11,17,163.00
2012,07,02,11,18,177.20
2012,07,02,11,19,176.20
2012,07,02,11,20,181.00
2012,07,02,11,21,176.20
2012,07,02,11,22,152.40
2012,07,02,11,23,135.30
2012,07,02,11,24,123.20
2012,07,02,11,25,117.10
2012,07,02,11,26,109.00
2012,07,02,11,27,133.40
2012,07,02,11,28,155.40
2012,07,02,11,29,133.30
2012,07,02,11,30,106.90
2012,07,02,11,31,94.70
2012,07,02,11,32,93.00
2012,07,02,11,33,97.80
2012,07,02,11,34,127.10
2012,07,02,11,35,131.60
2012,07,02,11,36,145.80
2012,07,02,11,37,162.80
2012,07,02,11,38,152.70
2012,07,02,11,39,127.60
2012,07,02,11,40,127.40
2012,07,02,11,41,126.50
2012,07,02,11,42,121.00
2012,07,02,11,43,119.20
2012,07,02,11,44,135.00
2012,07,02,11,45,151.90
2012,07,02,11,46,155.80
2012,07,02,11,47,167.80
2012,07,02,11,48,165.20
2012,07,02,11,49,185.50
2012,07,02,11,50,173.80
2012,07,02,11,51,158.70
2012,07,02,11,52,154.70
2012,07,02,11,53,160.00
2012,07,02,11,54,168.00
2012,07,02,11,55,192.10
2012,07,02,11,56,195.00
2012,07,02,11,57,196.10
2012,07,02,11,58,216.80
2012,07,02,11,59,225.90
2012,07,02,12,00,214.80
2012,07,02,12,01,199.70
2012,07,02,12,02,204.80
2012,07,02,12,03,199.30
2012,07,02,12,04,177.50
2012,07,02,12,05,166.00
2012,07,02,12,06,157.90
2012,07,02,12,07,147.10
2012,07,02,12,08,141.00
2012,07,02,12,09,135.70
2012,07,02,12,10,132.50
2012,07,02,12,11,140.00
2012,07,02,12,12,145.00
2012,07,02,12,13,159.80
2012,07,02,12,14,160.90
2012,07,02,12,15,159.50
2012,07,02,12,16,160.00
2012,07,02,12,17,160.00
2012,07,02,12,18,161.90
2012,07,02,12,19,167.30
2012,07,02,12,20,188.70
2012,07,02,12,21,181.00
2012,07,02,12,22,179.80
2012,07,02,12,23,175.40
2012,07,02,12,24,177.40
2012,07,02,12,25,178.90
2012,07,02,12,26,176.10
2012,07,02,12,27,182.60
2012,07,02,12,28,181.00
2012,07,02,12,29,188.20
2012,07,02,12,30,209.00
2012,07,02,12,31,221.40
2012,07,02,12,32,218.50
2012,07,02,12,33,213.20
2012,07,02,12,34,201.70
2012,07,02,12,35,196.70
2012,07,02,12,36,180.90
2012,07,02,12,37,175.30
2012,07,02,12,38,196.20
2012,07,02,12,39,232.10
2012,07,02,12,40,265.30
2012,07,02,12,41,255.50
2012,07,02,12,42,222.90
2012,07,02,12,43,199.50
2012,07,02,12,44,183.60
2012,07,02,12,45,170.30
2012,07,02,12,46,155.70
2012,07,02,12,47,154.70
2012,07,02,12,48,139.80
2012,07,02,12,49,134.50
2012,07,02,12,50,143.70
2012,07,02,12,51,142.00
2012,07,02,12,52,144.50
2012,07,02,12,53,162.30
2012,07,02,12,54,185.00
2012,07,02,12,55,185.00
2012,07,02,12,56,183.00
2012,07,02,12,57,183.30
2012,07,02,12,58,170.40
2012,07,02,12,59,152.00
2012,07,02,13,00,148.80
2012,07,02,13,01,153.90
2012,07,02,13,02,161.90
2012,07,02,13,03,177.30
2012,07,02,13,04,194.40
2012,07,02,13,05,188.30
2012,07,02,13,06,188.30
2012,07,02,13,07,175.50
2012,07,02,13,08,160.20
2012,07,02,13,09,158.50
2012,07,02,13,10,143.00
2012,07,02,13,11,134.40
2012,07,02,13,12,132.00
2012,07,02,13,13,143.80
2012,07,02,13,14,149.60
2012,07,02,13,15,146.70
2012,07,02,13,16,142.70
2012,07,02,13,17,137.50
2012,07,02,13,18,128.40
2012,07,02,13,19,142.30
2012,07,02,13,20,159.30
2012,07,02,13,21,183.70
2012,07,02,13,22,178.30
2012,07,02,13,23,180.30
2012,07,02,13,24,177.70
2012,07,02,13,25,167.30
2012,07,02,13,26,154.50
2012,07,02,13,27,149.10
2012,07,02,13,28,166.40
2012,07,02,13,29,151.10
2012,07,02,13,30,143.50
2012,07,02,13,31,142.40
2012,07,02,13,32,160.10
2012,07,02,13,33,155.40
2012,07,02,13,34,157.80
2012,07,02,13,35,156.60
2012,07,02,13,36,156.60
2012,07,02,13,37,141.70
2012,07,02,13,38,144.30
2012,07,02,13,39,152.50
2012,07,02,13,40,154.10
2012,07,02,13,41,158.20
2012,07,02,13,42,167.60
2012,07,02,13,43,164.00
2012,07,02,13,44,163.60
2012,07,02,13,45,177.20
2012,07,02,13,46,184.30
2012,07,02,13,47,183.20
2012,07,02,13,48,169.70
2012,07,02,13,49,176.20
2012,07,02,13,50,178.10
2012,07,02,13,51,161.00
2012,07,02,13,52,163.80
2012,07,02,13,53,154.90
2012,07,02,13,54,144.00
2012,07,02,13,55,153.50
2012,07,02,13,56,173.40
2012,07,02,13,57,195.90
2012,07,02,13,58,213.80
2012,07,02,13,59,201.00
2012,07,02,14,00,174.70
2012,07,02,14,01,151.80
2012,07,02,14,02,122.70
2012,07,02,14,03,109.50
2012,07,02,14,04,109.20
2012,07,02,14,05,115.80
2012,07,02,14,06,128.50
2012,07,02,14,07,144.80
2012,07,02,14,08,158.70
2012,07,02,14,09,137.00
2012,07,02,14,10,140.60
2012,07,02,14,11,136.90
2012,07,02,14,12,142.40
2012,07,02,14,13,133.80
2012,07,02,14,14,123.60
2012,07,02,14,15,133.70
2012,07,02,14,16,140.30
2012,07,02,14,17,160.90
2012,07,02,14,18,162.00
2012,07,02,14,19,149.20
2012,07,02,14,20,152.30
2012,07,02,14,21,159.00
2012,07,02,14,22,155.00
2012,07,02,14,23,148.30
2012,07,02,14,24,132.50
2012,07,02,14,25,127.70
2012,07,02,14,26,127.60
2012,07,02,14,27,126.00
2012,07,02,14,28,125.50
2012,07,02,14,29,127.70
2012,07,02,14,30,125.70
2012,07,02,14,31,121.00
2012,07,02,14,32,114.00
2012,07,02,14,33,111.10
2012,07,02,14,34,113.50
2012,07,02,14,35,141.40
2012,07,02,14,36,157.70
2012,07,02,14,37,156.00
2012,07,02,14,38,130.70
2012,07,02,14,39,128.00
2012,07,02,14,40,124.80
2012,07,02,14,41,114.70
2012,07,02,14,42,111.90
2012,07,02,14,43,110.80
2012,07,02,14,44,101.10
2012,07,02,14,45,102.60
2012,07,02,14,46,104.80
2012,07,02,14,47,116.80
2012,07,02,14,48,126.60
2012,07,02,14,49,139.60
2012,07,02,14,50,147.70
2012,07,02,14,51,157.40
2012,07,02,14,52,154.50
2012,07,02,14,53,158.30
2012,07,02,14,54,168.20
2012,07,02,14,55,175.20
2012,07,02,14,56,181.30
2012,07,02,14,57,178.00
2012,07,02,14,58,175.50
2012,07,02,14,59,184.00
2012,07,02,15,00,175.80
2012,07,02,15,01,142.00
2012,07,02,15,02,167.80
2012,07,02,15,03,178.60
2012,07,02,15,04,177.30
2012,07,02,15,05,193.00
2012,07,02,15,06,207.00
2012,07,02,15,07,188.90
2012,07,02,15,08,194.30
2012,07,02,15,09,206.40
2012,07,02,15,10,188.50
2012,07,02,15,11,168.70
2012,07,02,15,12,160.90
2012,07,02,15,13,171.50
2012,07,02,15,14,161.60
2012,07,02,15,15,148.10
2012,07,02,15,16,127.20
2012,07,02,15,17,137.50
2012,07,02,15,18,159.00
2012,07,02,15,19,201.80
2012,07,02,15,20,197.00
2012,07,02,15,21,175.40
2012,07,02,15,22,157.00
2012,07,02,15,23,158.70
2012,07,02,15,24,181.00
2012,07,02,15,25,172.40
2012,07,02,15,26,169.10
2012,07,02,15,27,195.90
2012,07,02,15,28,221.70
2012,07,02,15,29,209.70
2012,07,02,15,30,183.70
2012,07,02,15,31,161.60
2012,07,02,15,32,159.80
2012,07,02,15,33,164.80
2012,07,02,15,34,129.50
2012,07,02,15,35,105.00
2012,07,02,15,36,106.50
2012,07,02,15,37,118.20
2012,07,02,15,38,122.70
2012,07,02,15,39,105.10
2012,07,02,15,40,114.30
2012,07,02,15,41,129.30
2012,07,02,15,42,136.20
2012,07,02,15,43,138.30
2012,07,02,15,44,139.00
2012,07,02,15,45,119.20
2012,07,02,15,46,105.60
2012,07,02,15,47,95.90
2012,07,02,15,48,98.50
2012,07,02,15,49,112.50
2012,07,02,15,50,126.70
2012,07,02,15,51,123.90
2012,07,02,15,52,120.30
2012,07,02,15,53,116.30
2012,07,02,15,54,107.00
2012,07,02,15,55,112.00
2012,07,02,15,56,119.60
2012,07,02,15,57,114.10
2012,07,02,15,58,104.50
2012,07,02,15,59,100.60
2012,07,02,16,00,93.10
2012,07,02,16,01,104.10
2012,07,02,16,02,108.80
2012,07,02,16,03,100.60
2012,07,02,16,04,103.60
2012,07,02,16,05,100.70
2012,07,02,16,06,104.30
2012,07,02,16,07,102.60
2012,07,02,16,08,101.00
2012,07,02,16,09,90.40
2012,07,02,16,10,82.10
2012,07,02,16,11,82.60
2012,07,02,16,12,87.50
2012,07,02,16,13,86.00
2012,07,02,16,14,80.40
2012,07,02,16,15,79.00
2012,07,02,16,16,71.60
2012,07,02,16,17,70.00
2012,07,02,16,18,73.30
2012,07,02,16,19,63.70
2012,07,02,16,20,68.90
2012,07,02,16,21,60.20
2012,07,02,16,22,52.60
2012,07,02,16,23,49.00
2012,07,02,16,24,47.80
2012,07,02,16,25,47.40
2012,07,02,16,26,49.00
2012,07,02,16,27,47.90
2012,07,02,16,28,46.40
2012,07,02,16,29,49.60
2012,07,02,16,30,52.50
2012,07,02,16,31,53.90
2012,07,02,16,32,51.30
2012,07,02,16,33,52.90
2012,07,02,16,34,49.40
2012,07,02,16,35,53.40
2012,07,02,16,36,56.50
2012,07,02,16,37,60.00
2012,07,02,16,38,68.70
2012,07,02,16,39,77.20
2012,07,02,16,40,83.30
2012,07,02,16,41,90.60
2012,07,02,16,42,95.30
2012,07,02,16,43,97.00
2012,07,02,16,44,90.20
2012,07,02,16,45,78.90
2012,07,02,16,46,70.30
2012,07,02,16,47,63.60
2012,07,02,16,48,72.30
2012,07,02,16,49,88.50
2012,07,02,16,50,92.60
2012,07,02,16,51,91.00
2012,07,02,16,52,95.80
2012,07,02,16,53,97.00
2012,07,02,16,54,93.00
2012,07,02,16,55,90.00
2012,07,02,16,56,92.60
2012,07,02,16,57,93.80
2012,07,02,16,58,88.30
2012,07,02,16,59,86.00
2012,07,02,17,00,89.00
2012,07,02,17,01,90.00
2012,07,02,17,02,83.70
2012,07,02,17,03,74.40
2012,07,02,17,04,74.90
2012,07,02,17,05,82.60
2012,07,02,17,06,72.70
2012,07,02,17,07,68.40
2012,07,02,17,08,73.30
2012,07,02,17,09,74.40
2012,07,02,17,10,71.00
2012,07,02,17,11,69.50
2012,07,02,17,12,67.80
2012,07,02,17,13,70.30
2012,07,02,17,14,74.90
2012,07,02,17,15,73.00
2012,07,02,17,16,81.40
2012,07,02,17,17,73.00